Time,TemperatureF,DewpointF,PressureIn,WindDirection,WindDirectionDegrees,WindSpeedMPH,WindSpeedGustMPH,Humidity,HourlyPrecipIn,Conditions,Clouds,dailyrainin,SoftwareType,DateUTC
2013-02-16 00:00:00,21.2,14.2,30.19,WNW,290,1.0,7.0,74,0.00,,---,0.01,VWS V14.00,2013-02-16 05:00:00,
2013-02-16 00:03:00,21.2,14.5,30.19,WNW,302,3.0,4.0,75,0.00,,---,0.00,VWS V14.00,2013-02-16 05:03:00,
2013-02-16 00:11:00,21.1,14.1,30.19,WNW,300,5.0,9.0,74,0.00,,---,0.00,VWS V14.00,2013-02-16 05:11:00,
2013-02-16 00:19:00,21.0,14.3,30.19,WNW,301,3.0,9.0,75,0.00,,---,0.00,VWS V14.00,2013-02-16 05:19:00,
2013-02-16 00:27:00,20.9,14.2,30.19,NW,326,1.0,9.0,75,0.00,,---,0.00,VWS V14.00,2013-02-16 05:27:00,
2013-02-16 00:35:00,20.8,14.4,30.19,NW,304,3.0,6.0,76,0.00,,---,0.00,VWS V14.00,2013-02-16 05:35:00,
2013-02-16 00:43:00,20.6,13.9,30.19,NW,321,4.0,6.0,75,0.00,,---,0.00,VWS V14.00,2013-02-16 05:43:00,
2013-02-16 00:51:00,20.6,13.9,30.19,NW,315,1.0,7.0,75,0.00,,---,0.00,VWS V14.00,2013-02-16 05:51:00,
2013-02-16 00:59:00,20.5,14.1,30.19,NW,315,2.0,7.0,76,0.00,,---,0.00,VWS V14.00,2013-02-16 05:59:00,
2013-02-16 01:08:00,20.4,14.1,30.19,NW,315,1.0,4.0,76,0.00,,---,0.00,VWS V14.00,2013-02-16 06:08:00,
2013-02-16 01:16:00,20.4,14.1,30.19,NNW,332,2.0,4.0,76,0.00,,---,0.00,VWS V14.00,2013-02-16 06:16:00,
2013-02-16 01:24:00,20.3,14.0,30.19,WNW,302,2.0,4.0,76,0.00,,---,0.00,VWS V14.00,2013-02-16 06:24:00,
2013-02-16 01:30:00,20.3,14.0,30.19,NNW,337,1.0,5.0,76,0.00,,---,0.00,VWS V14.00,2013-02-16 06:30:00,
2013-02-16 01:40:00,20.2,14.2,30.18,NNW,337,1.0,3.0,77,0.00,,---,0.00,VWS V14.00,2013-02-16 06:40:00,
2013-02-16 01:48:00,20.1,14.1,30.18,WNW,302,5.0,5.0,77,0.00,,---,0.00,VWS V14.00,2013-02-16 06:48:00,
2013-02-16 01:56:00,20.0,14.0,30.18,NNW,342,0.0,5.0,77,0.00,,---,0.00,VWS V14.00,2013-02-16 06:56:00,
2013-02-16 02:04:00,19.8,13.5,30.18,NW,308,2.0,5.0,76,0.00,,---,0.00,VWS V14.00,2013-02-16 07:04:00,
2013-02-16 02:12:00,19.8,13.8,30.18,NW,308,0.0,5.0,77,0.00,,---,0.00,VWS V14.00,2013-02-16 07:12:00,
2013-02-16 02:20:00,19.8,13.8,30.18,NW,308,0.0,5.0,77,0.00,,---,0.00,VWS V14.00,2013-02-16 07:20:00,
2013-02-16 02:28:00,19.7,13.7,30.18,NNW,346,2.0,5.0,77,0.00,,---,0.00,VWS V14.00,2013-02-16 07:28:00,
2013-02-16 02:36:00,19.7,13.7,30.17,North,5,2.0,5.0,77,0.00,,---,0.00,VWS V14.00,2013-02-16 07:36:00,
2013-02-16 02:44:00,19.6,13.6,30.18,NW,316,4.0,5.0,77,0.00,,---,0.00,VWS V14.00,2013-02-16 07:44:00,
2013-02-16 02:52:00,19.5,13.5,30.17,WNW,292,1.0,6.0,77,0.00,,---,0.00,VWS V14.00,2013-02-16 07:52:00,
2013-02-16 03:00:00,19.5,13.8,30.17,WNW,292,3.0,6.0,78,0.00,,---,0.00,VWS V14.00,2013-02-16 08:00:00,
2013-02-16 03:08:00,19.4,13.7,30.17,WNW,292,0.0,3.0,78,0.00,,---,0.00,VWS V14.00,2013-02-16 08:08:00,
2013-02-16 03:16:00,19.4,13.7,30.17,WNW,292,0.0,3.0,78,0.00,,---,0.00,VWS V14.00,2013-02-16 08:16:00,
2013-02-16 03:24:00,19.4,13.7,30.17,WNW,292,0.0,3.0,78,0.00,,---,0.00,VWS V14.00,2013-02-16 08:24:00,
2013-02-16 03:30:00,19.3,13.6,30.17,WNW,292,0.0,3.0,78,0.00,,---,0.00,VWS V14.00,2013-02-16 08:30:00,
2013-02-16 03:40:00,19.3,13.6,30.16,WNW,292,0.0,0.0,78,0.00,,---,0.00,VWS V14.00,2013-02-16 08:40:00,
2013-02-16 03:48:00,19.3,13.9,30.16,WNW,292,0.0,0.0,79,0.00,,---,0.00,VWS V14.00,2013-02-16 08:48:00,
2013-02-16 03:56:00,19.3,13.9,30.17,WNW,292,0.0,0.0,79,0.00,,---,0.00,VWS V14.00,2013-02-16 08:56:00,
2013-02-16 04:04:00,19.4,14.0,30.16,WNW,292,0.0,0.0,79,0.00,,---,0.00,VWS V14.00,2013-02-16 09:04:00,
2013-02-16 04:12:00,19.3,14.1,30.16,WNW,292,0.0,0.0,80,0.00,,---,0.00,VWS V14.00,2013-02-16 09:12:00,
2013-02-16 04:20:00,19.3,14.1,30.16,WNW,292,0.0,0.0,80,0.00,,---,0.00,VWS V14.00,2013-02-16 09:20:00,
2013-02-16 04:28:00,19.2,14.1,30.17,WNW,292,0.0,1.0,80,0.00,,---,0.00,VWS V14.00,2013-02-16 09:28:00,
2013-02-16 04:36:00,19.1,14.0,30.16,WNW,292,1.0,1.0,80,0.00,,---,0.00,VWS V14.00,2013-02-16 09:36:00,
2013-02-16 04:44:00,19.1,14.2,30.16,WNW,292,1.0,2.0,81,0.00,,---,0.00,VWS V14.00,2013-02-16 09:44:00,
2013-02-16 04:52:00,19.1,14.2,30.16,WNW,292,0.0,2.0,81,0.00,,---,0.00,VWS V14.00,2013-02-16 09:52:00,
2013-02-16 05:00:00,19.1,14.2,30.16,WNW,292,0.0,2.0,81,0.00,,---,0.00,VWS V14.00,2013-02-16 10:00:00,
2013-02-16 05:08:00,19.1,14.2,30.16,WNW,292,0.0,1.0,81,0.00,,---,0.00,VWS V14.00,2013-02-16 10:08:00,
2013-02-16 05:16:00,19.1,14.2,30.16,WNW,292,0.0,1.0,81,0.00,,---,0.00,VWS V14.00,2013-02-16 10:16:00,
2013-02-16 05:24:00,19.1,14.2,30.16,WNW,292,0.0,1.0,81,0.00,,---,0.00,VWS V14.00,2013-02-16 10:24:00,
2013-02-16 05:30:00,19.1,14.2,30.16,WNW,292,0.0,2.0,81,0.00,,---,0.00,VWS V14.00,2013-02-16 10:30:00,
2013-02-16 05:40:00,19.2,14.3,30.16,WNW,292,0.0,2.0,81,0.00,,---,0.00,VWS V14.00,2013-02-16 10:40:00,
2013-02-16 05:48:00,19.1,14.2,30.16,WNW,290,0.0,2.0,81,0.00,,---,0.00,VWS V14.00,2013-02-16 10:48:00,
2013-02-16 05:56:00,18.9,14.0,30.16,WNW,288,0.0,3.0,81,0.00,,---,0.00,VWS V14.00,2013-02-16 10:56:00,
2013-02-16 06:04:00,18.8,14.2,30.16,WNW,288,0.0,3.0,82,0.00,,---,0.00,VWS V14.00,2013-02-16 11:04:00,
2013-02-16 06:12:00,18.7,13.9,30.16,WNW,288,1.0,3.0,81,0.00,,---,0.00,VWS V14.00,2013-02-16 11:12:00,
2013-02-16 06:20:00,18.4,13.8,30.16,WNW,288,2.0,3.0,82,0.00,,---,0.00,VWS V14.00,2013-02-16 11:20:00,
2013-02-16 06:28:00,18.0,13.4,30.15,West,273,2.0,3.0,82,0.00,,---,0.00,VWS V14.00,2013-02-16 11:28:00,
2013-02-16 06:36:00,17.8,13.2,30.15,West,273,0.0,3.0,82,0.00,,---,0.00,VWS V14.00,2013-02-16 11:36:00,
2013-02-16 06:44:00,17.5,13.2,30.15,West,268,1.0,3.0,83,0.00,,---,0.00,VWS V14.00,2013-02-16 11:44:00,
2013-02-16 06:52:00,17.4,13.1,30.15,West,268,0.0,3.0,83,0.00,,---,0.00,VWS V14.00,2013-02-16 11:52:00,
2013-02-16 07:00:00,17.4,13.1,30.15,West,268,0.0,3.0,83,0.00,,---,0.00,VWS V14.00,2013-02-16 12:00:00,
2013-02-16 07:08:00,17.5,13.2,30.15,West,268,2.0,3.0,83,0.00,,---,0.00,VWS V14.00,2013-02-16 12:08:00,
2013-02-16 07:16:00,17.7,13.4,30.15,West,268,2.0,3.0,83,0.00,,---,0.00,VWS V14.00,2013-02-16 12:16:00,
2013-02-16 07:24:00,17.7,13.4,30.16,West,268,2.0,4.0,83,0.00,,---,0.00,VWS V14.00,2013-02-16 12:24:00,
2013-02-16 07:30:00,17.6,13.3,30.16,West,268,0.0,4.0,83,0.00,,---,0.00,VWS V14.00,2013-02-16 12:30:00,
2013-02-16 07:40:00,17.8,13.5,30.16,West,268,0.0,4.0,83,0.00,,---,0.00,VWS V14.00,2013-02-16 12:40:00,
2013-02-16 07:48:00,18.1,13.8,30.16,West,265,2.0,4.0,83,0.00,,---,0.00,VWS V14.00,2013-02-16 12:48:00,
2013-02-16 07:56:00,18.4,13.8,30.16,SSW,199,0.0,5.0,82,0.00,,---,0.00,VWS V14.00,2013-02-16 12:56:00,
2013-02-16 08:04:00,18.7,13.9,30.16,SSW,199,2.0,4.0,81,0.00,,---,0.00,VWS V14.00,2013-02-16 13:04:00,
2013-02-16 08:12:00,19.0,13.9,30.16,SSW,199,3.0,5.0,80,0.00,,---,0.00,VWS V14.00,2013-02-16 13:12:00,
2013-02-16 08:20:00,19.3,13.9,30.17,SSW,196,2.0,5.0,79,0.00,,---,0.00,VWS V14.00,2013-02-16 13:20:00,
2013-02-16 08:28:00,19.6,13.9,30.17,SSW,198,0.0,6.0,78,0.00,,---,0.00,VWS V14.00,2013-02-16 13:28:00,
2013-02-16 08:36:00,19.9,13.9,30.17,SSW,208,4.0,6.0,77,0.00,,---,0.00,VWS V14.00,2013-02-16 13:36:00,
2013-02-16 08:45:00,20.1,14.1,30.17,SSW,212,3.0,7.0,77,0.00,,---,0.00,VWS V14.00,2013-02-16 13:45:00,
2013-02-16 08:53:00,20.2,13.2,30.17,SSW,203,4.0,7.0,74,0.00,,---,0.00,VWS V14.00,2013-02-16 13:53:00,
2013-02-16 09:00:00,20.6,13.9,30.17,SSW,200,0.0,7.0,75,0.00,,---,0.00,VWS V14.00,2013-02-16 14:00:00,
2013-02-16 09:09:00,20.9,13.6,30.16,SSW,212,1.0,6.0,73,0.00,,---,0.00,VWS V14.00,2013-02-16 14:09:00,
2013-02-16 09:17:00,21.3,13.4,30.16,SW,217,0.0,6.0,71,0.00,,---,0.00,VWS V14.00,2013-02-16 14:17:00,
2013-02-16 09:25:00,21.6,12.7,30.16,South,178,5.0,6.0,68,0.00,,---,0.00,VWS V14.00,2013-02-16 14:25:00,
2013-02-16 09:30:00,22.0,13.1,30.16,SW,224,5.0,6.0,68,0.00,,---,0.00,VWS V14.00,2013-02-16 14:30:00,
2013-02-16 09:41:00,22.6,12.6,30.16,SSW,201,1.0,7.0,65,0.00,,---,0.00,VWS V14.00,2013-02-16 14:41:00,
2013-02-16 09:49:00,22.7,13.1,30.16,SSW,193,2.0,7.0,66,0.00,,---,0.00,VWS V14.00,2013-02-16 14:49:00,
2013-02-16 09:57:00,22.8,13.5,30.16,SW,215,4.0,8.0,67,0.00,,---,0.00,VWS V14.00,2013-02-16 14:57:00,
2013-02-16 10:05:00,23.3,13.3,30.16,West,259,2.0,6.0,65,0.00,,---,0.00,VWS V14.00,2013-02-16 15:05:00,
2013-02-16 10:13:00,23.6,13.2,30.15,SSE,168,2.0,6.0,64,0.00,,---,0.00,VWS V14.00,2013-02-16 15:13:00,
2013-02-16 10:21:00,23.9,13.1,30.15,SW,228,1.0,6.0,63,0.00,,---,0.00,VWS V14.00,2013-02-16 15:21:00,
2013-02-16 10:29:00,23.7,13.3,30.15,SW,228,1.0,6.0,64,0.00,,---,0.00,VWS V14.00,2013-02-16 15:29:00,
2013-02-16 10:37:00,24.3,13.5,30.15,SSW,209,1.0,8.0,63,0.00,,---,0.00,VWS V14.00,2013-02-16 15:37:00,
2013-02-16 10:45:00,24.7,14.3,30.15,SSW,211,5.0,8.0,64,0.00,,---,0.00,VWS V14.00,2013-02-16 15:45:00,
2013-02-16 10:53:00,24.2,13.4,30.14,South,175,4.0,8.0,63,0.00,,---,0.00,VWS V14.00,2013-02-16 15:53:00,
2013-02-16 11:00:00,24.9,14.5,30.14,SSE,161,2.0,8.0,64,0.00,,---,0.00,VWS V14.00,2013-02-16 16:00:00,
2013-02-16 11:09:00,24.9,13.7,30.14,SSW,205,0.0,7.0,62,0.00,,---,0.00,VWS V14.00,2013-02-16 16:09:00,
2013-02-16 11:17:00,25.1,13.6,30.14,NW,309,4.0,8.0,61,0.00,,---,0.00,VWS V14.00,2013-02-16 16:17:00,
2013-02-16 11:25:00,25.4,13.5,30.13,WNW,287,4.0,10.0,60,0.00,,---,0.00,VWS V14.00,2013-02-16 16:25:00,
2013-02-16 11:30:00,25.4,14.2,30.13,SW,234,2.0,10.0,62,0.00,,---,0.00,VWS V14.00,2013-02-16 16:30:00,
2013-02-16 11:41:00,26.4,14.4,30.13,WNW,284,0.0,8.0,60,0.01,,---,0.01,VWS V14.00,2013-02-16 16:41:00,
2013-02-16 11:49:00,26.0,12.9,30.13,WSW,255,1.0,8.0,57,0.01,,---,0.01,VWS V14.00,2013-02-16 16:49:00,
2013-02-16 11:57:00,24.9,10.6,30.13,SW,217,3.0,10.0,54,0.01,,---,0.01,VWS V14.00,2013-02-16 16:57:00,
2013-02-16 12:05:00,25.2,11.7,30.12,SW,228,3.0,8.0,56,0.01,,---,0.01,VWS V14.00,2013-02-16 17:05:00,
2013-02-16 12:13:00,25.3,12.2,30.12,SW,224,0.0,8.0,57,0.01,,---,0.01,VWS V14.00,2013-02-16 17:13:00,
2013-02-16 12:21:00,25.4,12.7,30.12,SW,234,2.0,8.0,58,0.01,,---,0.01,VWS V14.00,2013-02-16 17:21:00,
2013-02-16 12:29:00,25.2,11.7,30.12,West,267,1.0,8.0,56,0.01,,---,0.01,VWS V14.00,2013-02-16 17:29:00,
2013-02-16 12:37:00,25.3,13.0,30.11,WSW,252,3.0,5.0,59,0.01,,---,0.01,VWS V14.00,2013-02-16 17:37:00,
2013-02-16 12:45:00,25.5,12.0,30.11,WNW,290,0.0,8.0,56,0.01,,---,0.01,VWS V14.00,2013-02-16 17:45:00,
2013-02-16 12:53:00,25.4,12.3,30.11,SSW,202,8.0,8.0,57,0.01,,---,0.01,VWS V14.00,2013-02-16 17:53:00,
2013-02-16 13:00:00,25.2,12.9,30.11,West,275,4.0,10.0,59,0.01,,---,0.01,VWS V14.00,2013-02-16 18:00:00,
2013-02-16 13:09:00,25.0,12.7,30.10,NNW,330,3.0,5.0,59,0.00,,---,0.01,VWS V14.00,2013-02-16 18:09:00,
2013-02-16 13:17:00,25.4,13.5,30.10,WNW,298,2.0,5.0,60,0.00,,---,0.01,VWS V14.00,2013-02-16 18:17:00,
2013-02-16 13:25:00,26.1,12.2,30.09,West,259,5.0,7.0,55,0.00,,---,0.01,VWS V14.00,2013-02-16 18:25:00,
2013-02-16 13:33:00,26.2,11.8,30.09,NW,314,2.0,8.0,54,0.00,,---,0.01,VWS V14.00,2013-02-16 18:33:00,
2013-02-16 13:41:00,26.1,12.2,30.08,NNW,335,4.0,8.0,55,0.00,,---,0.01,VWS V14.00,2013-02-16 18:41:00,
2013-02-16 13:49:00,25.4,14.9,30.09,WNW,296,10.0,11.0,64,0.00,,---,0.01,VWS V14.00,2013-02-16 18:49:00,
2013-02-16 13:57:00,23.3,16.9,30.09,WNW,292,11.0,15.0,76,0.00,,---,0.01,VWS V14.00,2013-02-16 18:57:00,
2013-02-16 14:05:00,22.9,18.5,30.09,NW,315,8.0,11.0,83,0.00,,---,0.01,VWS V14.00,2013-02-16 19:05:00,
2013-02-16 14:13:00,22.4,17.5,30.09,NW,316,4.0,11.0,81,0.00,,---,0.01,VWS V14.00,2013-02-16 19:13:00,
2013-02-16 14:21:00,22.1,17.2,30.09,WNW,300,6.0,13.0,81,0.00,,---,0.01,VWS V14.00,2013-02-16 19:21:00,
2013-02-16 14:29:00,21.9,16.7,30.09,NNW,347,2.0,13.0,80,0.00,,---,0.01,VWS V14.00,2013-02-16 19:29:00,
2013-02-16 14:37:00,21.8,16.0,30.09,NW,309,5.0,9.0,78,0.00,,---,0.01,VWS V14.00,2013-02-16 19:37:00,
2013-02-16 14:45:00,21.6,16.1,30.09,NW,304,4.0,11.0,79,0.00,,---,0.01,VWS V14.00,2013-02-16 19:45:00,
2013-02-16 14:53:00,21.3,14.9,30.09,NW,306,6.0,13.0,76,0.00,,---,0.01,VWS V14.00,2013-02-16 19:53:00,
2013-02-16 15:00:00,21.4,14.4,30.09,NNW,337,0.0,13.0,74,0.00,,---,0.01,VWS V14.00,2013-02-16 20:00:00,
2013-02-16 15:09:00,21.7,14.1,30.09,NW,313,5.0,11.0,72,0.00,,---,0.01,VWS V14.00,2013-02-16 20:09:00,
2013-02-16 15:17:00,22.2,13.3,30.09,SW,223,4.0,11.0,68,0.00,,---,0.01,VWS V14.00,2013-02-16 20:17:00,
2013-02-16 15:25:00,22.4,12.1,30.10,NW,316,6.0,11.0,64,0.00,,---,0.01,VWS V14.00,2013-02-16 20:25:00,
2013-02-16 15:33:00,22.5,11.8,30.10,WNW,300,3.0,10.0,63,0.00,,---,0.01,VWS V14.00,2013-02-16 20:33:00,
2013-02-16 15:41:00,22.5,11.1,30.10,WNW,297,6.0,11.0,61,0.00,,---,0.01,VWS V14.00,2013-02-16 20:41:00,
2013-02-16 15:49:00,22.5,11.1,30.10,NW,304,5.0,11.0,61,0.00,,---,0.01,VWS V14.00,2013-02-16 20:49:00,
2013-02-16 15:58:00,22.2,10.8,30.10,WNW,302,4.0,11.0,61,0.00,,---,0.01,VWS V14.00,2013-02-16 20:58:00,
2013-02-16 16:06:00,22.2,10.8,30.10,NW,321,1.0,7.0,61,0.00,,---,0.01,VWS V14.00,2013-02-16 21:06:00,
2013-02-16 16:14:00,22.0,10.6,30.10,NW,304,7.0,9.0,61,0.00,,---,0.01,VWS V14.00,2013-02-16 21:14:00,
2013-02-16 16:22:00,22.1,10.0,30.11,NW,309,6.0,9.0,59,0.00,,---,0.01,VWS V14.00,2013-02-16 21:22:00,
2013-02-16 16:30:00,22.0,8.3,30.11,WNW,301,5.0,9.0,55,0.00,,---,0.01,VWS V14.00,2013-02-16 21:30:00,
2013-02-16 16:38:00,22.0,7.9,30.11,NW,309,2.0,11.0,54,0.00,,---,0.01,VWS V14.00,2013-02-16 21:38:00,
2013-02-16 16:46:00,21.9,7.4,30.11,NW,316,2.0,11.0,53,0.00,,---,0.01,VWS V14.00,2013-02-16 21:46:00,
2013-02-16 16:54:00,21.9,7.8,30.11,NW,319,3.0,11.0,54,0.00,,---,0.01,VWS V14.00,2013-02-16 21:54:00,
2013-02-16 17:00:00,21.9,7.8,30.11,NW,306,3.0,11.0,54,0.00,,---,0.01,VWS V14.00,2013-02-16 22:00:00,
2013-02-16 17:10:00,21.8,8.1,30.11,WNW,298,2.0,8.0,55,0.00,,---,0.01,VWS V14.00,2013-02-16 22:10:00,
2013-02-16 17:18:00,21.7,7.6,30.12,WNW,286,0.0,9.0,54,0.00,,---,0.01,VWS V14.00,2013-02-16 22:18:00,
2013-02-16 17:26:00,21.4,7.3,30.12,WSW,253,4.0,10.0,54,0.00,,---,0.01,VWS V14.00,2013-02-16 22:26:00,
2013-02-16 17:34:00,21.3,7.7,30.12,NW,316,2.0,8.0,55,0.00,,---,0.01,VWS V14.00,2013-02-16 22:34:00,
2013-02-16 17:42:00,21.2,8.0,30.12,SSW,200,0.0,8.0,56,0.00,,---,0.01,VWS V14.00,2013-02-16 22:42:00,
2013-02-16 17:50:00,20.9,7.3,30.12,NW,304,5.0,8.0,55,0.00,,---,0.01,VWS V14.00,2013-02-16 22:50:00,
2013-02-16 17:58:00,20.6,8.2,30.12,WNW,302,5.0,8.0,58,0.00,,---,0.01,VWS V14.00,2013-02-16 22:58:00,
2013-02-16 18:06:00,20.3,8.3,30.12,NW,309,1.0,7.0,59,0.00,,---,0.01,VWS V14.00,2013-02-16 23:06:00,
2013-02-16 18:14:00,20.0,8.0,30.13,NW,308,3.0,9.0,59,0.00,,---,0.01,VWS V14.00,2013-02-16 23:14:00,
2013-02-16 18:22:00,19.9,8.3,30.13,WNW,286,3.0,9.0,60,0.00,,---,0.01,VWS V14.00,2013-02-16 23:22:00,
2013-02-16 18:30:00,19.6,8.7,30.13,WNW,286,0.0,9.0,62,0.00,,---,0.01,VWS V14.00,2013-02-16 23:30:00,
2013-02-16 18:38:00,19.4,8.5,30.13,WNW,286,1.0,5.0,62,0.00,,---,0.01,VWS V14.00,2013-02-16 23:38:00,
2013-02-16 18:46:00,19.4,9.2,30.13,WNW,286,0.0,5.0,64,0.00,,---,0.01,VWS V14.00,2013-02-16 23:46:00,
2013-02-16 18:54:00,19.3,9.1,30.13,WNW,286,0.0,5.0,64,0.00,,---,0.01,VWS V14.00,2013-02-16 23:54:00,
2013-02-16 19:00:00,19.4,9.6,30.13,WNW,286,0.0,5.0,65,0.00,,---,0.01,VWS V14.00,2013-02-17 00:00:00,
2013-02-16 19:10:00,19.0,9.2,30.13,WNW,286,0.0,1.0,65,0.00,,---,0.01,VWS V14.00,2013-02-17 00:10:00,
2013-02-16 19:18:00,18.5,9.1,30.13,WNW,286,0.0,1.0,66,0.00,,---,0.01,VWS V14.00,2013-02-17 00:18:00,
2013-02-16 19:26:00,18.0,8.2,30.13,WNW,286,0.0,2.0,65,0.00,,---,0.01,VWS V14.00,2013-02-17 00:26:00,
2013-02-16 19:34:00,17.7,8.6,30.13,WNW,286,0.0,0.0,67,0.00,,---,0.01,VWS V14.00,2013-02-17 00:34:00,
2013-02-16 19:42:00,17.2,7.8,30.13,WNW,286,0.0,0.0,66,0.00,,---,0.01,VWS V14.00,2013-02-17 00:42:00,
2013-02-16 19:50:00,16.6,7.6,30.13,WNW,286,0.0,1.0,67,0.00,,---,0.01,VWS V14.00,2013-02-17 00:50:00,
2013-02-16 19:58:00,16.1,7.4,30.12,WNW,286,0.0,1.0,68,0.00,,---,0.01,VWS V14.00,2013-02-17 00:58:00,
2013-02-16 20:06:00,15.7,7.7,30.12,WNW,286,0.0,0.0,70,0.00,,---,0.01,VWS V14.00,2013-02-17 01:06:00,
2013-02-16 20:14:00,15.2,7.2,30.12,WNW,286,0.0,0.0,70,0.00,,---,0.01,VWS V14.00,2013-02-17 01:14:00,
2013-02-16 20:22:00,15.0,7.6,30.11,WNW,286,0.0,0.0,72,0.00,,---,0.01,VWS V14.00,2013-02-17 01:22:00,
2013-02-16 20:30:00,14.7,7.6,30.11,WNW,286,0.0,0.0,73,0.00,,---,0.01,VWS V14.00,2013-02-17 01:30:00,
2013-02-16 20:38:00,14.4,7.3,30.11,WNW,286,0.0,0.0,73,0.00,,---,0.01,VWS V14.00,2013-02-17 01:38:00,
2013-02-16 20:46:00,14.3,6.9,30.11,WNW,286,0.0,0.0,72,0.00,,---,0.01,VWS V14.00,2013-02-17 01:46:00,
2013-02-16 20:54:00,13.9,6.9,30.11,WNW,286,0.0,0.0,73,0.00,,---,0.01,VWS V14.00,2013-02-17 01:54:00,
2013-02-16 21:00:00,13.9,7.2,30.10,WNW,286,0.0,0.0,74,0.00,,---,0.01,VWS V14.00,2013-02-17 02:00:00,
2013-02-16 21:10:00,13.6,7.2,30.11,WNW,286,0.0,0.0,75,0.00,,---,0.01,VWS V14.00,2013-02-17 02:10:00,
2013-02-16 21:18:00,13.5,7.1,30.10,WNW,286,0.0,0.0,75,0.00,,---,0.01,VWS V14.00,2013-02-17 02:18:00,
2013-02-16 21:26:00,13.5,7.1,30.10,WNW,286,0.0,0.0,75,0.00,,---,0.01,VWS V14.00,2013-02-17 02:26:00,
2013-02-16 21:34:00,13.4,7.0,30.10,WNW,286,0.0,0.0,75,0.00,,---,0.01,VWS V14.00,2013-02-17 02:34:00,
2013-02-16 21:42:00,13.3,7.2,30.10,WNW,286,0.0,0.0,76,0.00,,---,0.01,VWS V14.00,2013-02-17 02:42:00,
2013-02-16 21:50:00,13.1,7.0,30.10,WNW,286,0.0,0.0,76,0.00,,---,0.01,VWS V14.00,2013-02-17 02:50:00,
2013-02-16 21:58:00,13.0,7.2,30.10,WNW,286,0.0,0.0,77,0.00,,---,0.01,VWS V14.00,2013-02-17 02:58:00,
2013-02-16 22:06:00,12.9,7.1,30.09,WNW,286,0.0,0.0,77,0.00,,---,0.01,VWS V14.00,2013-02-17 03:06:00,
2013-02-16 22:14:00,13.0,7.2,30.09,WNW,286,0.0,0.0,77,0.00,,---,0.01,VWS V14.00,2013-02-17 03:14:00,
2013-02-16 22:22:00,13.1,7.3,30.09,WNW,286,0.0,0.0,77,0.00,,---,0.01,VWS V14.00,2013-02-17 03:22:00,
2013-02-16 22:30:00,13.2,7.3,30.09,WNW,286,0.0,0.0,77,0.00,,---,0.01,VWS V14.00,2013-02-17 03:30:00,
2013-02-16 22:38:00,13.0,7.2,30.09,WNW,286,0.0,0.0,77,0.00,,---,0.01,VWS V14.00,2013-02-17 03:38:00,
2013-02-16 22:46:00,12.8,7.2,30.08,WNW,286,0.0,0.0,78,0.00,,---,0.01,VWS V14.00,2013-02-17 03:46:00,
2013-02-16 22:54:00,12.6,7.1,30.08,WNW,286,0.0,0.0,78,0.00,,---,0.01,VWS V14.00,2013-02-17 03:54:00,
2013-02-16 23:00:00,12.5,7.0,30.08,WNW,286,0.0,0.0,78,0.00,,---,0.01,VWS V14.00,2013-02-17 04:00:00,
2013-02-16 23:10:00,12.3,7.0,30.08,WNW,286,0.0,0.0,79,0.00,,---,0.01,VWS V14.00,2013-02-17 04:10:00,
2013-02-16 23:19:00,12.1,7.1,30.08,WNW,286,0.0,0.0,80,0.00,,---,0.01,VWS V14.00,2013-02-17 04:19:00,
2013-02-16 23:27:00,11.9,7.2,30.07,WNW,286,0.0,0.0,81,0.00,,---,0.01,VWS V14.00,2013-02-17 04:27:00,
2013-02-16 23:35:00,11.7,7.0,30.07,WNW,286,0.0,0.0,81,0.00,,---,0.01,VWS V14.00,2013-02-17 04:35:00,
2013-02-16 23:43:00,11.5,6.8,30.07,WNW,286,0.0,0.0,81,0.00,,---,0.01,VWS V14.00,2013-02-17 04:43:00,
2013-02-16 23:51:00,11.2,6.8,30.07,WNW,286,0.0,0.0,82,0.00,,---,0.01,VWS V14.00,2013-02-17 04:51:00,
2013-02-16 23:59:00,10.9,6.8,30.07,WNW,286,0.0,0.0,83,0.00,,---,0.01,VWS V14.00,2013-02-17 04:59:00,